Regional Weather Roundup
Issued by NWS

Home | Current Version | Previous Version | Graphics & Text | Print | Product List | Glossary Off
Versions: 1 2 3 4 5 6 7 8 9 10 11 12 13 14 15 16 17 18 19 20 21 22 23 24 25 26 27 28 29 30 31 32 33 34 35 36 37 38 39 40 41 42 43 44 45 46 47 48 49 50

000
ASUS43 KIND 310009
RWRIN

WEATHER ROUNDUP FOR INDIANA
NATIONAL WEATHER SERVICE INDIANAPOLIS IN
800 PM EDT MON MAR 30 2015

NOTE: "FAIR" INDICATES FEW OR NO CLOUDS BELOW 12,000 FEET WITH NO
SIGNIFICANT WEATHER AND/OR OBSTRUCTIONS TO VISIBILITY.

* - STATION DOES NOT REPORT WEATHER SUCH AS PRECIPITATION OR FOG.

+ - STATION NOT QUALITY CONTROLLED BY THE NATIONAL WEATHER SERVICE.
    USE DATA WITH CAUTION...ESPECIALLY DEWPOINT AND RELATIVE
    HUMIDITY OBSERVATIONS.

INZ001>003-010>013-019-020-310100-
NORTHWEST INDIANA

CITY           SKY/WX    TMP DP  RH WIND       PRES   REMARKS
KNOX *+          N/A     54   9  16 NW6       29.94S
LA PORTE +     LGT RAIN  57  34  42 W9G21     29.96S
6HR MIN TEMP:  57; 6HR MAX TEMP:  61;

MICHIGAN CITY+ RAIN      52  28  40 NW5       29.98R
MONTICELLO +   CLOUDY    56  37  48 SW6       29.94F
6HR MIN TEMP:  56; 6HR MAX TEMP:  61;

RENSSELAER +   CLOUDY    55  36  47 SW8       29.94F
VALPARAISO     CLOUDY    56  31  38 CALM      29.95S
6HR MIN TEMP:  56; 6HR MAX TEMP:  61; 6HR PCP: TRACE;


$$

LMZ046-743>745-310100-
SOUTHERN LAKE MICHIGAN

STATION/POSITION TIME  TEMP WIND        PRES
                       AIR  DIR/SP/G
                 (UTC) (F)  (DEG/KT/KT) (MB)
BURNS HARBOR     0000   48   30/ 11/ 12 1014.6S
MICHIGAN CITY    0000   53  300/  6/  8   N/A

$$

INZ004-005-014>016-021>024-310100-
NORTH CENTRAL INDIANA

CITY           SKY/WX    TMP DP  RH WIND       PRES   REMARKS
ELKHART        CLOUDY    55  27  33 W14       29.96
GOSHEN         CLOUDY    52  33  48 W9        29.94F
6HR MIN TEMP:  52; 6HR MAX TEMP:  58;

LOGANSPORT +   CLOUDY    52  37  58 S8        29.96F
PERU/GRISSOM   MOCLDY    52  38  57 SW8       29.96F
6HR MIN TEMP:  52; 6HR MAX TEMP:  60;

ROCHESTER +    CLOUDY    59  32  36 W8        29.96S
SOUTH BEND     LGT RAIN  53  34  48 W7        29.97R
6HR MIN TEMP:  53; 6HR MAX TEMP:  59; 6HR PCP: TRACE;

WARSAW +       CLOUDY    52  32  46 W7        29.95F

$$

INZ006>009-017-018-025>027-310100-
NORTHEAST INDIANA

CITY           SKY/WX    TMP DP  RH WIND       PRES   REMARKS
ANGOLA *+      CLOUDY    54  28  37 NW9       29.94S
AUBURN +       CLOUDY    54  30  40 W8        29.96S
FORT WAYNE     CLOUDY    53  34  48 SW8       29.96F
6HR MIN TEMP:  53; 6HR MAX TEMP:  59;

HUNTINGTON +   MOCLDY    54  26  34 SW5       29.96F
6HR MIN TEMP:  54; 6HR MAX TEMP:  58;


$$

INZ028-029-035-036-043>045-051>053-310100-
WEST CENTRAL INDIANA

CITY           SKY/WX    TMP DP  RH WIND       PRES   REMARKS
CRAWFORDSVL +  MOCLDY    52  29  40 SW8       29.99F
6HR MIN TEMP:  52; 6HR MAX TEMP:  60;

GREENCASTLE +  MOCLDY    55  27  33 CALM      30.01S
LAFAYETTE      CLOUDY    58  31  35 SW5       29.96F
6HR MIN TEMP:  56; 6HR MAX TEMP:  62;

TERRE HAUTE    MOCLDY    59  33  37 SW8       30.01F
6HR MIN TEMP:  58; 6HR MAX TEMP:  63; 6HR PCP: TRACE;


$$

INZ030>032-037>040-046>048-054>057-064-065-310100-
CENTRAL INDIANA

CITY           SKY/WX    TMP DP  RH WIND       PRES   REMARKS
CP ATTERBURY + PTCLDY    55  30  38 SW8       30.02F
COLUMBUS       PTCLDY    55  25  30 SW9       30.03F
FRANKFORT +    CLOUDY    54  38  54 S8        30.00F
6HR MIN TEMP:  54; 6HR MAX TEMP:  61;

GREENWOOD *+   PTCLDY    55  27  33 W5        30.02F
INDIANAPOLIS   MOCLDY    53  31  42 SW9       30.00F
6HR MIN TEMP:  53; 6HR MAX TEMP:  61;

-EAGLE CREEK   MOCLDY    57  31  37 SW5       30.00F
6HR MIN TEMP:  56; 6HR MAX TEMP:  59;

KOKOMO *+        N/A     54  36  50 SW7       29.97F
6HR MIN TEMP:  54; 6HR MAX TEMP:  59;

MARION +       MOCLDY    49  35  57 SW6       29.98F
MT COMFORT *+  MOCLDY    55  21  26 SW8       30.01F
SHELBYVILLE    MOCLDY    56  32  40 SW3       30.00F
6HR MIN TEMP:  55; 6HR MAX TEMP:  61;

ZIONSVILLE +   MOCLDY    56  33  42 SW8       30.00S
6HR MIN TEMP:  56; 6HR MAX TEMP:  60;


$$

INZ033-034-041-042-049-050-058-059-310100-
EAST CENTRAL INDIANA

CITY           SKY/WX    TMP DP  RH WIND       PRES   REMARKS
MUNCIE         MOCLDY    55  33  43 SW6       29.99F
6HR MIN TEMP:  54; 6HR MAX TEMP:  58;


$$

INZ060-061-067>069-081>083-085>088-310100-
SOUTHWEST INDIANA

CITY           SKY/WX    TMP DP  RH WIND       PRES   REMARKS
EVANSVILLE     CLEAR     60  32  34 SW7       30.08F
6HR MIN TEMP:  60; 6HR MAX TEMP:  65;

HUNTINGBURG *+ CLEAR     57  30  35 W6        30.08S
6HR MIN TEMP:  57; 6HR MAX TEMP:  64;

WASHINGTON +   CLEAR     54  31  42 SW8       30.05F
6HR MIN TEMP:  54; 6HR MAX TEMP:  63;


$$

INZ062-063-066-070>080-084-089>092-310100-
SOUTH CENTRAL AND SOUTHEAST INDIANA

CITY           SKY/WX    TMP DP  RH WIND       PRES   REMARKS
BEDFORD +      PTCLDY    57  25  28 SW7       30.05F
BLOOMINGTON    MOCLDY    57  31  37 W6        30.03F
6HR MIN TEMP:  57; 6HR MAX TEMP:  62;

NORTH VERNON + MOCLDY    57  27  30 SW9       30.05S
SEYMOUR +      PTCLDY    55  32  41 W8        30.04F

$$




USA.gov is the U.S. government's official web portal to all federal, state and local government web resources and services.